"Pseudo-MPEC" for ZTF10Fd

Created 2026 Sep 5 10:35:17 UT using Find_Orb

Click here for an explanation of pseudo-MPECs

 
 Astrometry: 
     ZTF10Fd*0C2026 08 31.31196620 25 35.969+27 18 02.88   ~8VDZ 17.26gUNEOCPI41
     ZTF10Fd 0C2026 08 31.31231420 25 32.185+27 17 50.01   ~8VDZ 17.26gUNEOCPI41
     ZTF10Fd 0C2026 08 31.31243620 25 30.804+27 17 43.85   ~8VDZ 17.13gUNEOCPI41
     ZTF10Fd 0C2026 08 31.31278320 25 26.822+27 17 30.36   ~8VDZ 17.13gUNEOCPI41
     ZTF10Fd 0C2026 08 31.34102220 20 06.927+26 57 38.84   ~8VDZ 17.20gUNEOCPI41
     ZTF10Fd 0C2026 08 31.34137020 20 03.084+26 57 22.79   ~8VDZ 17.20gUNEOCPI41

Station data:
(I41) Palomar Mountain--ZTF  (N33.357336 W116.859780)  US/California.
   Observers B. T. Bolin, Z. T. F. Collaboration. Measurers B. T. Bolin,
   Z.-Y. Lin, F. J. Masci. 1.2-m f/2.4 Schmidt.

Orbital elements:  ZTF10Fd
   Perihelion 2026 Nov 24.374131 +/- 61.7 TT =  8:58:44.9 (JD 2461368.874131)
Epoch 2026 Aug 31.0 TT = JDT 2461283.5   Earth MOID: 0.0031   Ve: 0.0084
M 226.266408530 +/- 40              Me: 0.0551                   AutoNEOCP
n   1.566441606 +/- 0.298           Peri.  336.567363 +/- 60
a   0.734276973 +/- 0.0932          Node   160.462450 +/- 70
e   0.45299232 +/- 0.12             Incl.    5.285441 +/- 7
P   0.629/229.816d         H 25.83  G  0.15   U 12.0  SR
q 0.401655139 +/- 0.133    Q 1.066898808 +/- 0.194        (J2000 ecliptic)
From 6 observations 2026 Aug. 31 (42.3 min); mean residual 0".65
Residuals in arcseconds: 
260831 I41  1.2-  .56-    260831 I41  .68+  .43-    260831 I41  .74-  .44+    
260831 I41  .72+  .75+    260831 I41  .16-  .24+    260831 I41  .71+  .44-    

Ephemerides (geocentric):
Date (UTC) HH   RA             Dec           delta  r     elong  mag " sig PA
---- --------  ------------   ------------  ------ ------ -----  --- --------
2026 09 05 11  14 21 29.172   -17 28 05.34  .02594 0.9941  56.3 22??  38d 113
2026 09 05 12  14 21 01.296   -17 31 16.13  .02616 0.9939  56.2 22??  38d 113
2026 09 05 13  14 20 33.858   -17 34 23.48  .02638 0.9938  56.1 23??  38d 113
2026 09 05 14  14 20 06.846   -17 37 27.48  .02659 0.9936  56.0 23??  37d 113
2026 09 05 15  14 19 40.253   -17 40 28.21  .02681 0.9934  55.9 23??  37d 113
2026 09 05 16  14 19 14.067   -17 43 25.74  .02703 0.9932  55.7 23??  37d 113
2026 09 05 17  14 18 48.279   -17 46 20.17  .02725 0.9931  55.6 23??  37d 113
2026 09 05 18  14 18 22.881   -17 49 11.56  .02747 0.9929  55.5 23??  37d 113
2026 09 05 19  14 17 57.863   -17 51 59.99  .02769 0.9927  55.4 23??  37d 113
2026 09 05 20  14 17 33.217   -17 54 45.54  .02791 0.9925  55.3 23??  37d 113
2026 09 05 21  14 17 08.935   -17 57 28.26  .02813 0.9924  55.2 23??  37d 113
2026 09 05 22  14 16 45.008   -18 00 08.24  .02835 0.9922  55.1 23??  37d 113
2026 09 05 23  14 16 21.429   -18 02 45.53  .02857 0.9920  54.9 23??  37d 113
2026 09 06 00  14 15 58.190   -18 05 20.19  .02879 0.9918  54.8 23??  37d 113
2026 09 06 01  14 15 35.283   -18 07 52.30  .02901 0.9916  54.7 23??  37d 113
2026 09 06 02  14 15 12.701   -18 10 21.90  .02923 0.9915  54.6 23??  37d 113
2026 09 06 03  14 14 50.438   -18 12 49.06  .02944 0.9913  54.5 23??  37d 113
2026 09 06 04  14 14 28.487   -18 15 13.83  .02966 0.9911  54.4 23??  37d 113
2026 09 06 05  14 14 06.840   -18 17 36.26  .02988 0.9909  54.3 23??  37d 113
2026 09 06 06  14 13 45.491   -18 19 56.41  .03010 0.9907  54.2 23??  37d 113
2026 09 06 07  14 13 24.435   -18 22 14.33  .03033 0.9906  54.1 23??  37d 112
2026 09 06 08  14 13 03.665   -18 24 30.07  .03055 0.9904  54.0 23??  37d 112
2026 09 06 09  14 12 43.175   -18 26 43.68  .03077 0.9902  53.9 23??  37d 112
2026 09 06 10  14 12 22.960   -18 28 55.20  .03099 0.9900  53.8 23??  37d 112
2026 09 06 11  14 12 03.013   -18 31 04.68  .03121 .98985  53.7 23??  37d 112
2026 09 06 12  14 11 43.329   -18 33 12.16  .03143 .98967  53.6 23??  37d 112
2026 09 06 13  14 11 23.904   -18 35 17.68  .03165 .98949  53.5 23??  37d 112
2026 09 06 14  14 11 04.731   -18 37 21.30  .03187 .98931  53.4 23??  37d 112
2026 09 06 15  14 10 45.806   -18 39 23.04  .03209 .98913  53.3 23??  37d 112
2026 09 06 16  14 10 27.123   -18 41 22.94  .03231 .98895  53.2 23??  37d 112
2026 09 06 17  14 10 08.679   -18 43 21.06  .03253 .98877  53.1 23??  37d 112
2026 09 06 18  14 09 50.468   -18 45 17.41  .03275 .98859  53.0 23??  37d 112
2026 09 06 19  14 09 32.485   -18 47 12.04  .03297 .98841  52.9 23??  37d 112
2026 09 06 20  14 09 14.727   -18 49 04.99  .03319 .98822  52.8 23??  37d 112
2026 09 06 21  14 08 57.189   -18 50 56.28  .03342 .98804  52.8 23??  37d 112
2026 09 06 22  14 08 39.866   -18 52 45.96  .03364 .98786  52.7 23??  37d 112
2026 09 06 23  14 08 22.756   -18 54 34.05  .03386 .98768  52.6 23??  37d 112
2026 09 07 00  14 08 05.852   -18 56 20.58  .03408 .98749  52.5 23??  37d 112
2026 09 07 01  14 07 49.153   -18 58 05.59  .03430 .98731  52.4 23??  37d 112
2026 09 07 02  14 07 32.653   -18 59 49.10  .03452 .98713  52.3 23??  37d 112
2026 09 07 03  14 07 16.349   -19 01 31.15  .03474 .98695  52.2 23??  37d 112
2026 09 07 04  14 07 00.238   -19 03 11.76  .03496 .98676  52.1 23??  37d 112
2026 09 07 05  14 06 44.316   -19 04 50.96  .03519 .98658  52.1 23??  37d 112
2026 09 07 06  14 06 28.579   -19 06 28.78  .03541 .98639  52.0 23??  37d 112
2026 09 07 07  14 06 13.024   -19 08 05.24  .03563 .98621  51.9 23??  37d 112
2026 09 07 08  14 05 57.648   -19 09 40.37  .03585 .98603  51.8 24??  37d 112
2026 09 07 09  14 05 42.447   -19 11 14.20  .03607 .98584  51.7 24??  37d 112
2026 09 07 10  14 05 27.419   -19 12 46.74  .03630 .98566  51.6 24??  37d 112